Location: Gro� Glienicke
(52.4675°N, 13.1079°E)
Time: 07:52:06
(UTC+00:00)

SL-16 R/B - Pass Details

Date: 06 July 2020
Orbit: 842 x 846 km, 71.0° (Epoch: 04 August)

Event Time Altitude Azimuth Distance (km) Brightness Sun altitude
Rises 20:38:03 0° 240° (WSW) 3,398 5.4 -7.8°
Reaches altitude 10° 20:40:41 10° 248° (WSW) 2,467 4.8 -8.0°
Maximum altitude 20:45:53 36° 315° (NW) 1,308 4.0 -8.4°
Drops below altitude 10° 20:51:08 10° 22° (NNE) 2,480 5.2 -8.9°
Sets 20:53:48 0° 31° (NNE) 3,419 5.7 -9.1°
